Stations météo

réclame
Mon MeteoGroup
Treviso/Istrana, Italie (16098): Température de l'air & dewpoint: 12.01.2019 12:00:00 - 18.01.2019 12:00:00 (CET)Treviso/Istrana, Italie (16098): Vitesse du vent: 12.01.2019 12:00:00 - 18.01.2019 12:00:00 (CET)Treviso/Istrana, Italie (16098): Direction du vent: 12.01.2019 12:00:00 - 18.01.2019 12:00:00 (CET)Treviso/Istrana, Italie (16098): reduced air pressure: 12.01.2019 12:00:00 - 18.01.2019 12:00:00 (CET)Treviso/Istrana, Italie (16098): visibility: 12.01.2019 12:00:00 - 18.01.2019 12:00:00 (CET)
Date & Time tt [°C] td [°C] ff [km/h] ff [knt] dd ppp [hPa] vv [km]
18.01.2019 12:00:00 6,0 4,0 22 12 E 1013,6 7
18.01.2019 11:00:00 6,0 4,5 8 4 ENE 1012,9 2,0
18.01.2019 10:00:00 6,0 4,5 2 1 E 1011,4 2,0
18.01.2019 09:00:00 6,0 4,5 4 2 N 1010,6 1,7
18.01.2019 08:00:00 6,4 4,7 5 3 NNE 1009,9 1,5
18.01.2019 07:00:00 6,8 5,1 2 1 WNW 1009,5 2,0
18.01.2019 06:00:00 6,4 4,9 4 2 W 1009,0 2,0
18.01.2019 05:00:00 6,4 4,9 8 4 WNW 1009,4 1,8
18.01.2019 04:00:00 6,8 5,3 8 4 NNW 1009,4 1,8
18.01.2019 03:00:00 6,6 5,2 5 3 NNW 1009,6 1,8
18.01.2019 02:00:00 6,0 4,7 4 2 NNW 1009,8 1,8
18.01.2019 01:00:00 6,0 4,7 5 3 NNE 1009,8 2,0
18.01.2019 00:00:00 6,0 4,7 5 3 NNE 1010,7 2,0
17.01.2019 23:00:00 6,0 4,7 5 3 NNE 1010,9 2,3
17.01.2019 22:00:00 5,8 4,8 9 5 NE 1011,2 2,8
17.01.2019 21:00:00 6,0 5,1 9 5 NE 1011,7 2,8
17.01.2019 20:00:00 6,0 5,4 11 6 NE 1011,7 2,4
17.01.2019 19:00:00 6,2 6,2 9 5 NE 1012,0 3,5
17.01.2019 18:00:00 6,6 6,5 8 4 E 1012,3 4,0
17.01.2019 17:00:00 6,8 5,7 8 4 N 1012,5 4,0
17.01.2019 16:00:00 7,8 4,9 5 3 NE 1012,7 5
17.01.2019 15:00:00 7,6 3,8 8 4 E 1013,0 6
17.01.2019 14:00:00 7,8 4,2 11 6 NNE 1013,7 6
17.01.2019 13:00:00 7,6 4,0 5 3 E 1014,7 6
17.01.2019 12:00:00 7,2 3,6 0 0 N 1015,3 6
17.01.2019 11:00:00 7,2 3,8 5 3 E 1016,0 8
17.01.2019 10:00:00 6,6 4,1 9 5 E 1016,1 8
17.01.2019 09:00:00 4,2 2,9 0 0 N 1015,8 8
17.01.2019 08:00:00 3,4 3,2 2 1 NNE 1016,1 6
17.01.2019 07:00:00 3,2 3,1 4 2 W 1016,5 6
17.01.2019 06:00:00 3,6 3,2 8 4 N 1016,5 6
17.01.2019 05:00:00 3,6 3,5 5 3 N 1016,5 6
17.01.2019 04:00:00 3,4 3,3 2 1 ENE 1017,5 7
17.01.2019 03:00:00 3,0 2,3 0 0 N 1017,5 7
17.01.2019 02:00:00 3,0 2,3 4 2 ENE 1018,5 7
17.01.2019 01:00:00 3,0 2,3 8 4 NE 1018,5 7
17.01.2019 00:00:00 3,0 2,3 2 1 NE 1019,5 7
16.01.2019 23:00:00 3,4 2,7 5 3 E 1019,5 7
16.01.2019 22:00:00 4,0 2,5 0 0 N 1018,7 8
16.01.2019 21:00:00 4,0 2,5 5 3 N 1018,7 8
16.01.2019 20:00:00 4,2 3,3 8 4 N 1018,9 14
16.01.2019 19:00:00 4,6 2,3 2 1 NE 1018,8 14
16.01.2019 18:00:00 5,6 1,9 4 2 ESE 1018,6 14
16.01.2019 17:00:00 9,0 3,2 2 1 SE 1018,5 14
16.01.2019 16:00:00 9,6 2,7 5 3 ESE 1018,6 18
16.01.2019 15:00:00 10,0 1,9 8 4 S 1018,7 20
16.01.2019 14:00:00 10,4 1,0 8 4 SSW 1018,8 15
16.01.2019 13:00:00 9,6 0,0 8 4 SSW 1019,2 20
16.01.2019 12:00:00 8,4 -0,6 8 4 WSW 1019,5 20
16.01.2019 11:00:00 7,0 0,9 5 3 WSW 1020,2 20
16.01.2019 10:00:00 3,8 -0,6 2 1 NNE 1020,1 20
16.01.2019 09:00:00 0,0 -2,9 9 5 N 1019,8 20
16.01.2019 08:00:00 -1,0 -2,7 4 2 WNW 1019,3 15
16.01.2019 07:00:00 0,8 -1,4 5 3 NNW 1019,9 20
16.01.2019 06:00:00 0,8 -1,6 11 6 N 1019,9 20
16.01.2019 05:00:00 2,0 0,5 11 6 NNW 1019,7 20
16.01.2019 04:00:00 2,0 0,5 5 3 NW 1019,8 20
16.01.2019 03:00:00 2,0 0,5 5 3 NNW 1019,8 20
16.01.2019 02:00:00 2,0 0,5 5 3 NE 1019,8 20
16.01.2019 01:00:00 2,0 0,5 4 2 N 1019,9 20
16.01.2019 00:00:00 2,2 0,7 9 5 ENE 1019,6 20
15.01.2019 23:00:00 2,2 0,7 13 7 ENE 1019,6 20
15.01.2019 22:00:00 2,4 0,9 9 5 NE 1019,6 20
15.01.2019 21:00:00 2,4 0,9 5 3 E 1019,6 20
15.01.2019 20:00:00 2,4 0,6 8 4 NE 1018,9 20
15.01.2019 19:00:00 2,4 1,2 8 4 NE 1018,8 20
15.01.2019 18:00:00 4,0 1,5 8 4 ENE 1018,1 20
15.01.2019 17:00:00 7,2 3,2 8 4 SE 1017,5 20
15.01.2019 16:00:00 10,4 -2,6 8 4 SE 1017,5 30
15.01.2019 15:00:00 11,6 -2,2 5 3 SSE 1017,8 30
15.01.2019 14:00:00 12,4 -3,0 9 5 SSE 1018,1 30
15.01.2019 13:00:00 11,4 -3,9 5 3 S 1018,1 30
15.01.2019 12:00:00 10,4 -3,3 8 4 SE 1019,0 30
15.01.2019 11:00:00 7,4 -3,2 8 4 ENE 1018,0 30
15.01.2019 10:00:00 5,4 -0,9 5 3 N 1018,1 30
15.01.2019 09:00:00 3,0 -2,9 0 0 N 1017,1 30
15.01.2019 08:00:00 3,0 -5,4 11 6 SSW 1015,9 30
15.01.2019 07:00:00 3,6 -9,1 15 8 WSW 1014,4 30
15.01.2019 06:00:00 7,4 -5,3 13 7 SW 1013,9 30
15.01.2019 05:00:00 7,4 -5,3 15 8 ESE 1013,9 30
15.01.2019 04:00:00 7,6 -5,8 15 8 E 1013,8 30
15.01.2019 03:00:00 8,4 -8,6 13 7 NNW 1013,3 30
15.01.2019 02:00:00 8,4 -6,2 22 12 NW 1013,3 30
15.01.2019 01:00:00 8,4 -6,6 26 14 NW 1012,2 30
15.01.2019 00:00:00 8,4 -5,8 22 12 NNW 1011,2 30
14.01.2019 23:00:00 7,6 -4,2 5 3 NNW 1010,3 30
14.01.2019 22:00:00 9,6 -3,3 29 16 NNW 1009,5 30
14.01.2019 21:00:00 10,0 -4,7 18 10 NNW 1008,0 30
14.01.2019 20:00:00 9,4 -5,7 15 8 NW 1006,4 30
14.01.2019 19:00:00 10,4 -6,4 18 10 NW 1005,2 30
14.01.2019 18:00:00 11,2 -4,9 16 9 NW 1004,6 30
14.01.2019 17:00:00 10,2 -0,3 18 10 NNW 1003,5 30
14.01.2019 16:00:00 10,2 3,9 11 6 W 1003,0 6
14.01.2019 15:00:00 10,0 3,7 11 6 W 1002,8 6
14.01.2019 14:00:00 9,8 3,8 16 9 WSW 1002,8 7
14.01.2019 13:00:00 8,6 3,4 21 11 WSW 1002,9 7
14.01.2019 12:00:00 7,6 3,3 16 9 WSW 1003,1 7
14.01.2019 11:00:00 6,0 2,5 9 5 W 1002,8 7
14.01.2019 10:00:00 3,8 1,5 4 2 SW 1002,4 7
14.01.2019 09:00:00 1,2 -0,3 9 5 NW 1002,3 6
14.01.2019 08:00:00 0,2 -0,2 8 4 N 1001,5 4,0
14.01.2019 07:00:00 -0,2 -0,9 9 5 NNE 1000,4 3,5
14.01.2019 06:00:00 -0,4 -1,1 5 3 W 999,2 3,0
14.01.2019 05:00:00 -0,6 -1,4 8 4 N 1000,5 3,0
14.01.2019 04:00:00 -1,6 -1,9 11 6 NNE 1001,5 3,0
14.01.2019 03:00:00 -1,8 -2,1 2 1 E 1001,5 3,0
14.01.2019 02:00:00 -1,6 -1,7 9 5 N 1001,5 3,0
14.01.2019 01:00:00 -0,4 -0,7 0 0 N 1002,5 3,0
14.01.2019 00:00:00 0,4 0,1 2 1 SSW 1004,5 3,0
13.01.2019 23:00:00 2,0 0,2 0 0 N 1005,5 3,0
13.01.2019 22:00:00 2,0 1,7 5 3 NNW 1006,0 3,0
13.01.2019 21:00:00 2,4 0,6 0 0 N 1006,5 6
13.01.2019 20:00:00 2,4 0,9 4 2 NNE 1006,5 6
13.01.2019 19:00:00 2,0 0,5 8 4 NNW 1006,9 6
13.01.2019 18:00:00 5,4 1,3 4 2 WNW 1008,2 6
13.01.2019 17:00:00 6,0 1,0 0 0 N 1008,4 7
13.01.2019 16:00:00 7,0 0,9 5 3 WSW 1009,3 8
13.01.2019 15:00:00 8,0 2,0 8 4 SW 1009,9 8
13.01.2019 14:00:00 8,0 1,8 5 3 WSW 1010,4 9
13.01.2019 13:00:00 7,4 1,7 8 4 W 1012,0 10
13.01.2019 12:00:00 7,0 1,9 9 5 W 1012,4 10
13.01.2019 11:00:00 5,0 1,3 9 5 WNW 1012,4 10
13.01.2019 10:00:00 3,0 -0,1 5 3 W 1012,0 10
13.01.2019 09:00:00 -2,0 -4,2 11 6 N 1011,8 10
13.01.2019 08:00:00 -1,8 -3,1 8 4 NW 1012,1 8
13.01.2019 07:00:00 -2,0 -3,4 8 4 NNW 1012,0 10
13.01.2019 06:00:00 -0,8 -2,7 0 0 N 1012,0 10
13.01.2019 05:00:00 0,0 -2,1 0 0 N 1012,2 10
13.01.2019 04:00:00 1,0 -1,1 5 3 N 1012,6 8
13.01.2019 03:00:00 1,2 -0,7 11 6 N 1013,0 8
13.01.2019 02:00:00 0,6 -1,0 9 5 N 1013,2 8
13.01.2019 01:00:00 1,2 -1,2 9 5 N 1014,0 8
13.01.2019 00:00:00 1,0 -0,9 0 0 N 1014,2 8
12.01.2019 23:00:00 0,8 -0,6 8 4 NNW 1015,1 5
12.01.2019 22:00:00 0,2 -0,2 0 0 N 1015,7 5
12.01.2019 21:00:00 0,6 -0,1 0 0 N 1016,1 5
12.01.2019 20:00:00 0,8 0,1 0 0 N 1016,3 5
12.01.2019 19:00:00 2,0 0,4 5 3 N 1017,0 6
12.01.2019 18:00:00 2,0 0,1 0 0 N 1016,9 6
12.01.2019 17:00:00 3,2 0,2 5 3 N 1017,0 8
12.01.2019 16:00:00 4,8 0,2 0 0 N 1017,7 10
12.01.2019 15:00:00 5,4 -0,2 0 0 N 1017,8 10
12.01.2019 14:00:00 5,2 -0,4 5 3 E 1018,2 10
12.01.2019 13:00:00 4,6 -0,8 9 5 NE 1018,9 10
12.01.2019 12:00:00 3,8 -1,2 8 4 ENE 1019,1 12

tt = Température de l'air
td = dewpoint
ff = Vitesse du vent
dd = Direction du vent
ppp = reduced air pressure
vv = visibility

stations d'obs. à proximité